www.pogodaiklimat.ru

Погода и климат >> Архив погоды >> Монголия >> Баян-Ову


ПОГОДА в Баян-Ову

  • Прогноз погоды в Баян-Ову
  • Монитор погоды в Баян-Ову

АРХИВ ПОГОДЫ в Баян-Ову

Время (UTC), дата Ветер
(напр.,м/с)
 
Видим.   Явления Облачность Т
(С)
Тd
(С)
f
(%)
Тe
(С)
Тes
(С)
Комфортность P
(гПа)
Po
(гПа)
Тmin
(С)
Tmax
(С)
R
(мм)
R24
(мм)
S
(см)
03 12.08 З 6 20 км слаб. ливневой дождь 9/9 600 м
[Cb cap]
+18.1 +15.0 82 +18 +18 1008.9 905.1
06 12.08 ЮЗ 4 20 км осадки на расстоянии {ливн. осадки} 9/9 600 м
[Cb cap]
+18.4 +15.3 82 +19 +20 1008.3 904.6
09 12.08 З 5 50 км {ливн. осадки} 8/4 600 м
[Sc Ac cast Ci fib]
+20.4 +15.6 74 +23 +24 комфорт 1006.7 903.8
12 12.08 СЗ 3 50 км {ливн. осадки} 4/1 1200 м
[Cb calv Ac cuf]
+18.5 +14.0 75 +19 +19 1008.0 904.4 +20.8
15 12.08 С 6 н/о 1/0
[Ac lent]
+15.2 +12.0 81 +14 +14 1010.8 905.8
18 12.08 СВ 3 н/о 1/0
[Ac lent]
+11.7 +10.3 91 +10 +10 1013.6 907.0
21 12.08 С 3 н/о 3/0
[Ac As]
+10.3 +8.7 90 +8 +8 1013.7 906.6
00 13.08 штиль 0 50 км 5/3 600 м
[Cb calv Ac cast Ci fib]
+13.2 +8.8 75 +13 +16 1013.1 907.1 +9.5
03 13.08 ЮЗ 2 50 км 5/1 600 м
[Cu med, cong Ac cast Cc]
+17.5 +9.4 59 +18 +27 1011.0 906.7
06 13.08 ЮЗ 2 50 км 4/3 600 м
[Cu med, cong Ac cast Ci sp]
+20.1 +9.3 50 +22 +31 комфорт 1008.4 905.3
09 13.08 З 5 50 км 4/3 600 м
[Cu med, cong Cs]
+21.0 +10.7 52 +23 +24 комфорт 1006.2 903.8
12 13.08 В 2 50 км 9/6 600 м
[Cb cap Ac cuf Cs]
+19.2 +12.6 66 +21 +21 комфорт 1006.2 903.0 +22.0
15 13.08 З 5 н/о 4/3 600 м
[Cb calv Ac cuf]
+15.6 +13.0 85 +14 +14 1007.2 902.7
18 13.08 З 3 н/о 3/0
[Ci]
+12.1 +9.1 82 +11 +11 1008.9 902.9
21 13.08 З 3 н/о 3/0
[Ac cast]
+10.1 +8.0 87 +8 +8 1010.0 903.2
00 14.08 З 3 50 км 8/5 600 м
[Sc Ac trans]
+13.2 +10.4 83 +12 +13 1009.3 903.7 +9.7
03 14.08 С 4 50 км 3/1 600 м
[Cu hum Ci fib]
+18.2 +7.6 50 +18 +26 1006.5 902.9
06 14.08 СЗ 4 50 км 6/6 600 м
[Cb calv]
+20.5 +8.5 46 +22 +25 комфорт 1004.8 902.1
09 14.08 СЗ 4 50 км 4/4 600 м
[Cb calv]
+20.7 +7.7 43 +22 +24 комфорт 1004.2 901.7
12 14.08 С 3 50 км 6/3 600 м
[Sc Ac cast Ci]
+17.3 +7.7 53 +17 +17 1005.4 901.5 +21.3
15 14.08 СВ 3 н/о 4/0
[Cs]
+13.2 +8.5 73 +12 +12 1007.8 902.4
18 14.08 СВ 1 н/о 9/3 600 м
[Cb calv As trans]
+11.8 +8.3 79 +12 +12 1008.9 902.8
21 14.08 С 4 н/о 9/8 600 м
[Sc As trans]
+11.5 +8.1 80 +9 +9 1009.2 903.0
00 15.08 С 4 50 км 8/4 600 м
[Sc Ac und]
+13.1 +8.5 74 +11 +12 1008.9 903.3 +10.9
03 15.08 СВ 6 50 км 9/8 600 м
[Cb calv Ac trans Ci fib]
+17.5 +8.6 56 +17 +18 1006.9 903.0
06 15.08 СВ 6 50 км 9/9 600 м
[Sc]
+18.4 +8.4 52 +18 +19 1006.4 902.9
09 15.08 СВ 4 50 км 8/5 600 м
[Cb cap Ac lent Ci]
+18.7 +9.5 55 +19 +20 1006.5 903.0
12 15.08 С 9 50 км 9/9 600 м
[Cb calv]
+14.8 +8.3 65 +13 +13 1009.8 904.8 +19.9
15 15.08 СЗ 7 н/о 4/3 600 м
[Cb calv Ac lent]
+12.0 +8.3 78 +9 +9 1010.6 904.5
18 15.08 СЗ 7 н/о 3/0
[Ac lent]
+11.3 +7.2 76 +8 +8 1011.4 904.9
21 15.08 СЗ 8 н/о ясно +10.1 +5.9 75 +6 +6 1011.5 904.6
00 16.08 З 4 50 км 3/0
[Ci]
+13.3 +7.9 70 +12 +14 1011.0 905.3 +8.8
03 16.08 С 6 50 км 5/4 600 м
[Cu med, cong Ac cast]
+19.2 +6.9 45 +19 +22 1008.0 904.7
06 16.08 С 6 50 км 6/5 600 м
[Cu med, cong Ci]
+20.8 +6.3 39 +22 +24 комфорт 1006.3 903.6
09 16.08 С 5 50 км 6/4 600 м
[Cu med, cong Ci]
+21.2 +5.1 35 +22 +23 комфорт 1005.6 903.2
12 16.08 С 4 50 км 4/1 600 м
[Cb calv Ac cast]
+17.4 +7.7 53 +17 +17 1008.0 904.0 +21.8
15 16.08 С 3 н/о 3/0
[Ac und]
+15.0 +7.3 60 +14 +14 1009.3 904.4
18 16.08 З 1 н/о ясно +10.6 +8.0 84 +10 +10 1011.5 904.8
21 16.08 З 2 н/о ясно +7.6 +6.2 91 +5 +5 1012.9 904.9
00 17.08 З 3 50 км ясно +12.1 +8.6 79 +11 +14 1011.4 905.2 +7.4
03 17.08 З 4 50 км 3/3 600 м
[Cu med, cong]
+19.1 +9.0 52 +20 +26 1007.5 904.3
06 17.08 С 2 50 км 6/5 600 м
[Cb calv Ac cast Cs]
+21.3 +6.8 39 +22 +28 комфорт 1005.1 902.7
09 17.08 З 4 50 км 8/6 600 м
[Cb cap Ac cast Cc]
+22.3 +5.7 34 +23 +24 комфорт 1003.9 902.0
12 17.08 Ю 1 50 км 6/0
[Ac cuf Cs]
+17.8 +10.2 61 +19 +19 1005.3 901.8 +22.9
15 17.08 С 1 н/о 8/0
[Ac trans Cs]
+14.7 +9.5 71 +15 +15 1006.9 906.9
18 17.08 штиль 0 н/о 9/0
[Ac und]
+14.1 +11.1 82 +14 +14 1006.8 901.8
21 17.08 З 2 н/о 9/9 600 м
[Sc]
+13.2 +11.6 90 +12 +12 1007.9 902.5
00 18.08 СЗ 2 50 км 9/9 600 м
[Sc]
+14.2 +11.4 83 +14 +14 1008.3 903.1 +13.1
03 18.08 С 1 50 км 9/9 600 м
[Sc]
+16.3 +12.1 76 +17 +19 1008.1 903.7
06 18.08 ЮЗ 3 50 км {ливн. осадки} 8/8 600 м
[Cb calv]
+21.0 +10.8 52 +23 +26 комфорт 1005.6 903.0
09 18.08 Ю 2 50 км 6/6 600 м
[Cb calv]
+22.3 +9.5 44 +24 +25 комфорт 1004.4 902.4
12 18.08 С 6 50 км {ливн. осадки} 8/6 600 м
[Cb cap Ac cuf]
+17.1 +12.0 72 +16 +16 1007.9 903.8 +22.6 0.6
15 18.08 С 3 н/о 3/0
[Ac lent]
+13.1 +11.3 89 +12 +12 1010.9 905.2
18 18.08 В 1 н/о 3/0
[Ac trans]
+11.7 +10.4 92 +11 +11 1011.9 905.5
21 18.08 штиль 0 н/о туман местами 4/0
[Cs]
+9.8 +9.2 96 +9 +9 1012.8 905.6
00 19.08 В 1 50 км {туман} 9/1 600 м
[Cu hum Ac As Cs]
+14.3 +9.5 73 +15 +17 1011.4 906.0 +9.5

 

Местоположение метеостанции Баян-Ову (Монголия): широта 47.78 долгота 112.11 высота над уровнем моря 926 м.

В архиве по умолчанию представлена погода в Баян-Ову за последнюю неделю. Архивные данные за месяц целиком и за предыдущие месяцы, начиная с января 2011 года, Вы можете получить, выбрав интересующий диапазон дат из раскрывающегося списка и нажав кнопку "Ввод!".


*Определитесь, кто Вы:
робот инопланетянин человек

Внимание! Время в таблицах - всемирное. Для получения местного времени необходимо прибавить поправку, которая равна 8 ч.

Смотрите также архив погоды в соседних городах и на ближайших метеорологических станциях:

Погода в Ундерхаане (Монголия) (122 км)
Погода в Татаале (Монголия) (129 км)
Погода в Биндэре (Монголия) (146 км)
Погода в Баруун-Урте (Монголия) (151 км)
Погода в Чойбалсане (Монголия) (185 км)
Погода в Кыре (Забайкальский край, Россия) (200 км)
Погода в Букукуне (Забайкальский край, Россия) (200 км)
Погода в Мангуте (Забайкальский край, Россия) (217 км)
Погода в Баяндэлгэре (Монголия) (229 км)
Погода в Дашбалбаре (Монголия) (259 км)

Пояснения к столбцам:

Ветер - указаны скорость ветра в м/с - средняя за 10 мин, порывы в срок и между сроками (в фигурных скобках) и направление, откуда дует ветер: С - северный, СВ - северо-восточный, В - восточный, ЮВ - юго-восточный, Ю - южный, ЮЗ - юго-западный, З - западный, СЗ - северо-западный.
Видимость - горизонтальная дальность видимости в метрах или километрах. При видимости от 1 до 10 км при отсутствии осадков обычно наблюдается дымка, при ухудшении видимости до 1 км и менее - туман. В сухую погоду видимость может ухудшаться дымом, пылью или мглою.
Явления - указаны атмосферные явления, наблюдавшиеся в срок или в последний час перед сроком; фигурными скобками обозначены явления, наблюдавшиеся между сроками (за 1-3 часа до срока); квадратными скобками обозначены град или гололедные отложения с указанием их диаметра в мм.
Облачность - указаны через наклонную черту общая и нижняя облачность в баллах и высота нижней границы облаков в метрах; квадратными скобками обозначены формы облаков: Ci - перистые, Cs - перисто-слоистые, Cc - перисто-кучевые, Ac - высококучевые, As - высокослоистые, Sc - слоисто-кучевые, Ns - слоисто-дождевые, Cu - кучевые, Cb - кучево-дождевые. Подробнее классификацию облаков см. в Атласе облаков (PDF).
T - Температура воздуха - температура, измеренная на высоте 2 м над землей.
Td - Температура точки росы - температура, при понижении до которой содержащийся в воздухе водяной пар достигнет насыщения.
f - Относительная влажность воздуха - влажноcть воздуха, измеренная на высоте 2 м над землей.
Te - Эффективная температура - температура, которую ощущает одетый по сезону человек в тени. Характеристика душности погоды. При расчете учитывается влияние влажности воздуха и скорости ветра на теплоощущения человека.
Tes - Эффективная температура на солнце - температура, которую ощущает человек, с поправкой на солнечный нагрев. Характеристика знойности погоды. Зависит от высоты солнца над горизонтом, облачности и скорости ветра. Ночью, в пасмурную погоду, а также при ветре 12 м/с и более поправка равна нулю.
P - Атмосферное давление - приведенное к уровню моря атмосферное давление.
Po - Атмосферное давление - измеренное на уровне метеостанции атмосферное давление.
Tmin - Минимальная температура - минимум температуры воздуха на высоте 2 м над землей.
Tmax - Максимальная температура - максимум температуры воздуха на высоте 2 м над землей.
R - Количество осадков - Количество выпавших осадков за период времени, мм. При наведении курсора мыши на число - период времени, за который выпало указанное количество осадков.
R24 - Количество осадков - Количество выпавших осадков за 24 часа, мм.
S - Снежный покров - Высота снежного покрова, см. При наведении курсора мыши на число - состояние снежного покрова и степень покрытия местности в баллах.